TimeMST,TemperatureF,Dew PointF,Humidity,Sea Level PressureIn,VisibilityMPH,Wind Direction,Wind SpeedMPH,Gust SpeedMPH,PrecipitationIn,Events,Conditions,WindDirDegrees,DateUTC
12:53 AM,21.0,8.1,57,30.01,10.0,NNE,6.9,-,N/A,,Clear,20,2013-02-14 07:53:00
1:53 AM,18.0,7.0,62,30.01,10.0,NNE,4.6,-,N/A,,Clear,30,2013-02-14 08:53:00
2:53 AM,16.0,7.0,68,30.02,10.0,ENE,6.9,-,N/A,,Clear,60,2013-02-14 09:53:00
3:53 AM,15.1,6.1,68,30.02,10.0,ENE,10.4,-,N/A,,Clear,60,2013-02-14 10:53:00
4:53 AM,17.1,7.0,65,30.03,10.0,ENE,8.1,-,N/A,,Clear,60,2013-02-14 11:53:00
5:53 AM,16.0,7.0,68,30.08,10.0,ENE,8.1,-,N/A,,Clear,70,2013-02-14 12:53:00
6:53 AM,17.1,8.1,68,30.12,10.0,NNE,10.4,-,N/A,,Clear,20,2013-02-14 13:53:00
7:53 AM,25.0,10.9,55,30.08,10.0,East,8.1,-,N/A,,Clear,80,2013-02-14 14:53:00
8:53 AM,33.1,12.0,42,30.10,10.0,East,5.8,-,N/A,,Clear,80,2013-02-14 15:53:00
9:53 AM,37.9,16.0,41,30.08,10.0,East,4.6,-,N/A,,Clear,80,2013-02-14 16:53:00
10:53 AM,39.9,12.9,33,30.07,10.0,South,4.6,-,N/A,,Clear,190,2013-02-14 17:53:00
11:53 AM,39.9,12.0,32,30.05,10.0,Variable,3.5,-,N/A,,Clear,0,2013-02-14 18:53:00
12:53 PM,44.1,12.9,28,30.02,10.0,SSW,6.9,-,N/A,,Scattered Clouds,210,2013-02-14 19:53:00
1:53 PM,45.0,12.9,27,30.02,10.0,West,3.5,-,N/A,,Overcast,270,2013-02-14 20:53:00
2:53 PM,46.0,12.9,26,30.04,10.0,ENE,21.9,26.5,N/A,,Overcast,70,2013-02-14 21:53:00
3:12 PM,44.6,12.2,27,30.03,10.0,ENE,16.1,-,N/A,,Overcast,70,2013-02-14 22:12:00
3:53 PM,43.0,10.9,27,30.09,10.0,NE,15.0,21.9,N/A,,Overcast,50,2013-02-14 22:53:00
4:53 PM,39.0,18.0,43,30.14,10.0,NNE,15.0,20.7,N/A,,Overcast,20,2013-02-14 23:53:00
5:49 PM,30.2,19.4,64,30.13,10.0,NNE,27.6,36.8,0.00,,Overcast,30,2013-02-15 00:49:00
5:53 PM,30.9,19.0,61,30.23,10.0,NNE,25.3,36.8,0.00,,Overcast,30,2013-02-15 00:53:00
6:53 PM,28.9,17.1,61,30.28,10.0,North,16.1,-,N/A,,Overcast,10,2013-02-15 01:53:00
7:53 PM,28.0,18.0,66,30.26,10.0,NNE,15.0,-,N/A,,Overcast,20,2013-02-15 02:53:00
8:53 PM,27.0,19.0,72,30.25,10.0,North,9.2,-,0.00,Snow,Light Snow,10,2013-02-15 03:53:00
9:53 PM,25.0,19.0,78,30.25,9.0,NNE,9.2,-,0.00,Snow,Light Snow,30,2013-02-15 04:53:00
10:53 PM,24.1,16.0,71,30.25,10.0,NNE,10.4,-,0.00,,Overcast,30,2013-02-15 05:53:00
11:53 PM,24.1,16.0,71,30.25,10.0,NE,11.5,-,N/A,,Overcast,50,2013-02-15 06:53:00